owner,sensor,date,latitude,longitude,sea_surface_height_above_sea_level,qcFlag 
TCOON,ioos:station:TCOON:013:1,2016-09-01T00:18:00Z,27.4847,-97.3181,0.969,1111122 
TCOON,ioos:station:TCOON:013:1,2016-09-01T01:12:00Z,27.4847,-97.3181,0.966,1111122 
TCOON,ioos:station:TCOON:013:1,2016-09-01T02:18:00Z,27.4847,-97.3181,0.965,1111122 
TCOON,ioos:station:TCOON:013:1,2016-09-01T03:12:00Z,27.4847,-97.3181,0.964,1111122 
TCOON,ioos:station:TCOON:013:1,2016-09-01T04:18:00Z,27.4847,-97.3181,0.967,1111122 
TCOON,ioos:station:TCOON:013:1,2016-09-01T05:18:00Z,27.4847,-97.3181,0.965,1111122 
TCOON,ioos:station:TCOON:013:1,2016-09-01T06:12:00Z,27.4847,-97.3181,0.962,1111122 
TCOON,ioos:station:TCOON:013:1,2016-09-01T07:18:00Z,27.4847,-97.3181,0.952,1111122 
TCOON,ioos:station:TCOON:013:1,2016-09-01T08:12:00Z,27.4847,-97.3181,0.945,1111122 
TCOON,ioos:station:TCOON:013:1,2016-09-01T09:12:00Z,27.4847,-97.3181,0.942,1111122 
TCOON,ioos:station:TCOON:013:1,2016-09-01T10:12:00Z,27.4847,-97.3181,0.942,1111122 
TCOON,ioos:station:TCOON:013:1,2016-09-01T11:18:00Z,27.4847,-97.3181,0.945,1111122 
TCOON,ioos:station:TCOON:013:1,2016-09-01T12:12:00Z,27.4847,-97.3181,0.948,1111122 
TCOON,ioos:station:TCOON:013:1,2016-09-01T13:18:00Z,27.4847,-97.3181,0.955,1111122 
TCOON,ioos:station:TCOON:013:1,2016-09-01T20:18:00Z,27.4847,-97.3181,0.975,1111122 
TCOON,ioos:station:TCOON:013:1,2016-09-02T12:24:00Z,27.4847,-97.3181,0.951,1111122 
TCOON,ioos:station:TCOON:013:1,2016-09-02T13:12:00Z,27.4847,-97.3181,0.956,1111122 
TCOON,ioos:station:TCOON:013:1,2016-09-02T14:18:00Z,27.4847,-97.3181,0.962,1111122 
TCOON,ioos:station:TCOON:013:1,2016-09-02T15:18:00Z,27.4847,-97.3181,0.966,1111122 
TCOON,ioos:station:TCOON:013:1,2016-09-02T16:18:00Z,27.4847,-97.3181,0.969,1111122 
TCOON,ioos:station:TCOON:013:1,2016-09-02T17:12:00Z,27.4847,-97.3181,0.972,1111122 
TCOON,ioos:station:TCOON:013:1,2016-09-02T18:18:00Z,27.4847,-97.3181,0.976,1111122 
TCOON,ioos:station:TCOON:013:1,2016-09-02T19:18:00Z,27.4847,-97.3181,0.978,1111122 
TCOON,ioos:station:TCOON:013:1,2016-09-02T20:18:00Z,27.4847,-97.3181,0.975,1111122 
TCOON,ioos:station:TCOON:013:1,2016-09-02T21:18:00Z,27.4847,-97.3181,0.976,1111122 
TCOON,ioos:station:TCOON:013:1,2016-09-02T22:18:00Z,27.4847,-97.3181,0.977,1111122 
TCOON,ioos:station:TCOON:013:1,2016-09-02T23:18:00Z,27.4847,-97.3181,0.978,1111122 
TCOON,ioos:station:TCOON:013:1,2016-09-03T00:18:00Z,27.4847,-97.3181,0.979,1111122 
TCOON,ioos:station:TCOON:013:1,2016-09-03T01:18:00Z,27.4847,-97.3181,0.983,1111122 
TCOON,ioos:station:TCOON:013:1,2016-09-03T02:18:00Z,27.4847,-97.3181,0.984,1111122 
TCOON,ioos:station:TCOON:013:1,2016-09-03T03:18:00Z,27.4847,-97.3181,0.985,1111122 
TCOON,ioos:station:TCOON:013:1,2016-09-03T04:18:00Z,27.4847,-97.3181,0.985,1111122 
TCOON,ioos:station:TCOON:013:1,2016-09-03T05:18:00Z,27.4847,-97.3181,0.985,1111122 
TCOON,ioos:station:TCOON:013:1,2016-09-03T06:18:00Z,27.4847,-97.3181,0.983,1111122 
TCOON,ioos:station:TCOON:013:1,2016-09-03T07:12:00Z,27.4847,-97.3181,0.977,1111122 
TCOON,ioos:station:TCOON:013:1,2016-09-03T08:18:00Z,27.4847,-97.3181,0.969,1111122 
TCOON,ioos:station:TCOON:013:1,2016-09-03T09:12:00Z,27.4847,-97.3181,0.96,1111122 
TCOON,ioos:station:TCOON:013:1,2016-09-03T10:12:00Z,27.4847,-97.3181,0.955,1111122 
TCOON,ioos:station:TCOON:013:1,2016-09-03T11:12:00Z,27.4847,-97.3181,0.949,1111122 
TCOON,ioos:station:TCOON:013:1,2016-09-03T12:18:00Z,27.4847,-97.3181,0.953,1111122 
TCOON,ioos:station:TCOON:013:1,2016-09-03T13:18:00Z,27.4847,-97.3181,0.959,1111122 
TCOON,ioos:station:TCOON:013:1,2016-09-03T14:18:00Z,27.4847,-97.3181,0.966,1111122 
TCOON,ioos:station:TCOON:013:1,2016-09-03T15:18:00Z,27.4847,-97.3181,0.975,1111122 
TCOON,ioos:station:TCOON:013:1,2016-09-03T16:18:00Z,27.4847,-97.3181,0.982,1111122 
TCOON,ioos:station:TCOON:013:1,2016-09-03T17:18:00Z,27.4847,-97.3181,0.982,1111122 
TCOON,ioos:station:TCOON:013:1,2016-09-03T18:18:00Z,27.4847,-97.3181,0.984,1111122 
TCOON,ioos:station:TCOON:013:1,2016-09-03T19:18:00Z,27.4847,-97.3181,0.986,1111122 
TCOON,ioos:station:TCOON:013:1,2016-09-03T20:18:00Z,27.4847,-97.3181,0.982,1111122 
TCOON,ioos:station:TCOON:013:1,2016-09-03T21:18:00Z,27.4847,-97.3181,0.979,1111122 
TCOON,ioos:station:TCOON:013:1,2016-09-03T22:12:00Z,27.4847,-97.3181,0.977,1111122 
TCOON,ioos:station:TCOON:013:1,2016-09-03T23:18:00Z,27.4847,-97.3181,0.974,1111122 
TCOON,ioos:station:TCOON:013:1,2016-09-04T00:18:00Z,27.4847,-97.3181,0.973,1111122 
TCOON,ioos:station:TCOON:013:1,2016-09-04T01:18:00Z,27.4847,-97.3181,0.975,1111122 
TCOON,ioos:station:TCOON:013:1,2016-09-04T02:18:00Z,27.4847,-97.3181,0.982,1111122 
TCOON,ioos:station:TCOON:013:1,2016-09-04T03:18:00Z,27.4847,-97.3181,0.991,1111122 
TCOON,ioos:station:TCOON:013:1,2016-09-04T04:18:00Z,27.4847,-97.3181,0.996,1111122 
TCOON,ioos:station:TCOON:013:1,2016-09-04T05:12:00Z,27.4847,-97.3181,0.996,1111122 
TCOON,ioos:station:TCOON:013:1,2016-09-04T06:18:00Z,27.4847,-97.3181,0.998,1111122 
TCOON,ioos:station:TCOON:013:1,2016-09-04T07:12:00Z,27.4847,-97.3181,0.998,1111122 
TCOON,ioos:station:TCOON:013:1,2016-09-04T08:18:00Z,27.4847,-97.3181,0.991,1111122 
TCOON,ioos:station:TCOON:013:1,2016-09-04T09:18:00Z,27.4847,-97.3181,0.989,1111122 
TCOON,ioos:station:TCOON:013:1,2016-09-04T10:18:00Z,27.4847,-97.3181,0.991,1111122 
TCOON,ioos:station:TCOON:013:1,2016-09-04T11:18:00Z,27.4847,-97.3181,0.992,1111122 
TCOON,ioos:station:TCOON:013:1,2016-09-04T12:18:00Z,27.4847,-97.3181,1.0,1111122 
TCOON,ioos:station:TCOON:013:1,2016-09-04T13:18:00Z,27.4847,-97.3181,0.997,1111122 
TCOON,ioos:station:TCOON:013:1,2016-09-04T14:18:00Z,27.4847,-97.3181,1.003,1111122 
TCOON,ioos:station:TCOON:013:1,2016-09-04T15:12:00Z,27.4847,-97.3181,1.012,1111122 
TCOON,ioos:station:TCOON:013:1,2016-09-04T16:12:00Z,27.4847,-97.3181,1.013,1111122 
TCOON,ioos:station:TCOON:013:1,2016-09-04T17:18:00Z,27.4847,-97.3181,1.014,1111122 
TCOON,ioos:station:TCOON:013:1,2016-09-04T18:18:00Z,27.4847,-97.3181,1.014,1111122 
TCOON,ioos:station:TCOON:013:1,2016-09-04T19:12:00Z,27.4847,-97.3181,1.009,1111122 
TCOON,ioos:station:TCOON:013:1,2016-09-04T20:12:00Z,27.4847,-97.3181,1.001,1111122 
TCOON,ioos:station:TCOON:013:1,2016-09-04T21:18:00Z,27.4847,-97.3181,0.997,1111122 
TCOON,ioos:station:TCOON:013:1,2016-09-04T22:18:00Z,27.4847,-97.3181,0.993,1111122 
TCOON,ioos:station:TCOON:013:1,2016-09-04T23:12:00Z,27.4847,-97.3181,0.989,1111122 
TCOON,ioos:station:TCOON:013:1,2016-09-05T00:18:00Z,27.4847,-97.3181,0.982,1111122 
TCOON,ioos:station:TCOON:013:1,2016-09-05T01:18:00Z,27.4847,-97.3181,0.985,1111122 
TCOON,ioos:station:TCOON:013:1,2016-09-05T02:12:00Z,27.4847,-97.3181,0.983,1111122 
TCOON,ioos:station:TCOON:013:1,2016-09-05T03:12:00Z,27.4847,-97.3181,0.972,1111122 
TCOON,ioos:station:TCOON:013:1,2016-09-05T04:18:00Z,27.4847,-97.3181,0.966,1111122 
TCOON,ioos:station:TCOON:013:1,2016-09-05T05:18:00Z,27.4847,-97.3181,0.959,1111122 
TCOON,ioos:station:TCOON:013:1,2016-09-05T06:18:00Z,27.4847,-97.3181,0.96,1111122 
TCOON,ioos:station:TCOON:013:1,2016-09-05T07:18:00Z,27.4847,-97.3181,0.96,1111122 
TCOON,ioos:station:TCOON:013:1,2016-09-05T08:18:00Z,27.4847,-97.3181,0.96,1111122 
TCOON,ioos:station:TCOON:013:1,2016-09-05T09:18:00Z,27.4847,-97.3181,0.958,1111122 
TCOON,ioos:station:TCOON:013:1,2016-09-05T10:18:00Z,27.4847,-97.3181,0.956,1111122 
TCOON,ioos:station:TCOON:013:1,2016-09-05T11:18:00Z,27.4847,-97.3181,0.955,1111122 
TCOON,ioos:station:TCOON:013:1,2016-09-05T12:18:00Z,27.4847,-97.3181,0.953,1111122 
TCOON,ioos:station:TCOON:013:1,2016-09-05T13:18:00Z,27.4847,-97.3181,0.954,1111122 
TCOON,ioos:station:TCOON:013:1,2016-09-05T14:18:00Z,27.4847,-97.3181,0.953,1111122 
TCOON,ioos:station:TCOON:013:1,2016-09-05T15:18:00Z,27.4847,-97.3181,0.95,1111122 
TCOON,ioos:station:TCOON:013:1,2016-09-05T16:18:00Z,27.4847,-97.3181,0.956,1111122 
TCOON,ioos:station:TCOON:013:1,2016-09-05T17:18:00Z,27.4847,-97.3181,0.952,1111122 
TCOON,ioos:station:TCOON:013:1,2016-09-05T18:18:00Z,27.4847,-97.3181,0.95,1111122 
TCOON,ioos:station:TCOON:013:1,2016-09-05T19:18:00Z,27.4847,-97.3181,0.944,1111122 
TCOON,ioos:station:TCOON:013:1,2016-09-05T20:18:00Z,27.4847,-97.3181,0.943,1111122 
TCOON,ioos:station:TCOON:013:1,2016-09-05T21:18:00Z,27.4847,-97.3181,0.937,1111122 
TCOON,ioos:station:TCOON:013:1,2016-09-05T22:18:00Z,27.4847,-97.3181,0.929,1111122 
TCOON,ioos:station:TCOON:013:1,2016-09-05T23:18:00Z,27.4847,-97.3181,0.927,1111122 
TCOON,ioos:station:TCOON:013:1,2016-09-06T00:18:00Z,27.4847,-97.3181,0.919,1111122 
TCOON,ioos:station:TCOON:013:1,2016-09-06T01:12:00Z,27.4847,-97.3181,0.909,1111122 
TCOON,ioos:station:TCOON:013:1,2016-09-06T02:12:00Z,27.4847,-97.3181,0.913,1111122 
TCOON,ioos:station:TCOON:013:1,2016-09-06T03:18:00Z,27.4847,-97.3181,0.911,1111122 
TCOON,ioos:station:TCOON:013:1,2016-09-06T04:18:00Z,27.4847,-97.3181,0.909,1111122 
TCOON,ioos:station:TCOON:013:1,2016-09-06T05:18:00Z,27.4847,-97.3181,0.912,1111122 
TCOON,ioos:station:TCOON:013:1,2016-09-06T06:18:00Z,27.4847,-97.3181,0.914,1111122 
TCOON,ioos:station:TCOON:013:1,2016-09-06T07:18:00Z,27.4847,-97.3181,0.918,1111122 
TCOON,ioos:station:TCOON:013:1,2016-09-06T08:18:00Z,27.4847,-97.3181,0.919,1111122 
TCOON,ioos:station:TCOON:013:1,2016-09-06T09:12:00Z,27.4847,-97.3181,0.923,1111122 
TCOON,ioos:station:TCOON:013:1,2016-09-06T10:18:00Z,27.4847,-97.3181,0.924,1111122 
TCOON,ioos:station:TCOON:013:1,2016-09-06T11:18:00Z,27.4847,-97.3181,0.928,1111122 
TCOON,ioos:station:TCOON:013:1,2016-09-06T12:18:00Z,27.4847,-97.3181,0.927,1111122 
TCOON,ioos:station:TCOON:013:1,2016-09-06T13:18:00Z,27.4847,-97.3181,0.93,1111122 
TCOON,ioos:station:TCOON:013:1,2016-09-06T14:18:00Z,27.4847,-97.3181,0.93,1111122 
TCOON,ioos:station:TCOON:013:1,2016-09-06T15:18:00Z,27.4847,-97.3181,0.932,1111122 
TCOON,ioos:station:TCOON:013:1,2016-09-06T16:18:00Z,27.4847,-97.3181,0.931,1111122 
TCOON,ioos:station:TCOON:013:1,2016-09-06T17:18:00Z,27.4847,-97.3181,0.929,1111122 
TCOON,ioos:station:TCOON:013:1,2016-09-06T18:18:00Z,27.4847,-97.3181,0.93,1111122 
TCOON,ioos:station:TCOON:013:1,2016-09-06T19:18:00Z,27.4847,-97.3181,0.925,1111122 
TCOON,ioos:station:TCOON:013:1,2016-09-06T20:18:00Z,27.4847,-97.3181,0.92,1111122 
TCOON,ioos:station:TCOON:013:1,2016-09-06T21:18:00Z,27.4847,-97.3181,0.918,1111122 
TCOON,ioos:station:TCOON:013:1,2016-09-06T22:18:00Z,27.4847,-97.3181,0.91,1111122 
TCOON,ioos:station:TCOON:013:1,2016-09-06T23:18:00Z,27.4847,-97.3181,0.907,1111122 
TCOON,ioos:station:TCOON:013:1,2016-09-07T00:18:00Z,27.4847,-97.3181,0.902,1111122 
TCOON,ioos:station:TCOON:013:1,2016-09-07T01:18:00Z,27.4847,-97.3181,0.898,1111122 
TCOON,ioos:station:TCOON:013:1,2016-09-07T02:18:00Z,27.4847,-97.3181,0.896,1111122 
TCOON,ioos:station:TCOON:013:1,2016-09-07T03:18:00Z,27.4847,-97.3181,0.892,1111122 
TCOON,ioos:station:TCOON:013:1,2016-09-07T04:18:00Z,27.4847,-97.3181,0.892,1111122 
TCOON,ioos:station:TCOON:013:1,2016-09-07T05:18:00Z,27.4847,-97.3181,0.892,1111122 
TCOON,ioos:station:TCOON:013:1,2016-09-07T06:18:00Z,27.4847,-97.3181,0.895,1111122 
TCOON,ioos:station:TCOON:013:1,2016-09-07T07:18:00Z,27.4847,-97.3181,0.898,1111122 
TCOON,ioos:station:TCOON:013:1,2016-09-07T08:18:00Z,27.4847,-97.3181,0.902,1111122 
TCOON,ioos:station:TCOON:013:1,2016-09-07T09:18:00Z,27.4847,-97.3181,0.91,1111122 
TCOON,ioos:station:TCOON:013:1,2016-09-07T10:18:00Z,27.4847,-97.3181,0.918,1111122 
TCOON,ioos:station:TCOON:013:1,2016-09-07T11:12:00Z,27.4847,-97.3181,0.925,1111122 
TCOON,ioos:station:TCOON:013:1,2016-09-07T12:12:00Z,27.4847,-97.3181,0.93,1111122 
TCOON,ioos:station:TCOON:013:1,2016-09-07T13:18:00Z,27.4847,-97.3181,0.94,1111122 
TCOON,ioos:station:TCOON:013:1,2016-09-07T14:18:00Z,27.4847,-97.3181,0.942,1111122 
TCOON,ioos:station:TCOON:013:1,2016-09-07T15:18:00Z,27.4847,-97.3181,0.941,1111122 
TCOON,ioos:station:TCOON:013:1,2016-09-07T16:18:00Z,27.4847,-97.3181,0.942,1111122 
TCOON,ioos:station:TCOON:013:1,2016-09-07T17:18:00Z,27.4847,-97.3181,0.944,1111122 
TCOON,ioos:station:TCOON:013:1,2016-09-07T18:36:00Z,27.4847,-97.3181,0.933,1111122 
TCOON,ioos:station:TCOON:013:1,2016-09-07T19:18:00Z,27.4847,-97.3181,0.932,1111122 
TCOON,ioos:station:TCOON:013:1,2016-09-07T20:12:00Z,27.4847,-97.3181,0.921,1111122 
TCOON,ioos:station:TCOON:013:1,2016-09-07T21:18:00Z,27.4847,-97.3181,0.91,1111122 
TCOON,ioos:station:TCOON:013:1,2016-09-07T22:18:00Z,27.4847,-97.3181,0.904,1111122 
TCOON,ioos:station:TCOON:013:1,2016-09-07T23:18:00Z,27.4847,-97.3181,0.899,1111122 
TCOON,ioos:station:TCOON:013:1,2016-09-08T00:12:00Z,27.4847,-97.3181,0.893,1111122 
TCOON,ioos:station:TCOON:013:1,2016-09-08T01:18:00Z,27.4847,-97.3181,0.888,1111122 
TCOON,ioos:station:TCOON:013:1,2016-09-08T02:18:00Z,27.4847,-97.3181,0.883,1111122 
TCOON,ioos:station:TCOON:013:1,2016-09-08T03:12:00Z,27.4847,-97.3181,0.882,1111122 
TCOON,ioos:station:TCOON:013:1,2016-09-08T04:18:00Z,27.4847,-97.3181,0.879,1111122 
TCOON,ioos:station:TCOON:013:1,2016-09-08T05:18:00Z,27.4847,-97.3181,0.878,1111122 
TCOON,ioos:station:TCOON:013:1,2016-09-08T06:18:00Z,27.4847,-97.3181,0.878,1111122 
TCOON,ioos:station:TCOON:013:1,2016-09-08T07:12:00Z,27.4847,-97.3181,0.879,1111122 
TCOON,ioos:station:TCOON:013:1,2016-09-08T08:18:00Z,27.4847,-97.3181,0.881,1111122 
TCOON,ioos:station:TCOON:013:1,2016-09-08T09:12:00Z,27.4847,-97.3181,0.883,1111122 
TCOON,ioos:station:TCOON:013:1,2016-09-08T10:18:00Z,27.4847,-97.3181,0.888,1111122 
TCOON,ioos:station:TCOON:013:1,2016-09-08T11:18:00Z,27.4847,-97.3181,0.9,1111122 
TCOON,ioos:station:TCOON:013:1,2016-09-08T12:18:00Z,27.4847,-97.3181,0.908,1111122 
TCOON,ioos:station:TCOON:013:1,2016-09-08T13:18:00Z,27.4847,-97.3181,0.918,1111122 
TCOON,ioos:station:TCOON:013:1,2016-09-08T14:18:00Z,27.4847,-97.3181,0.921,1111122 
TCOON,ioos:station:TCOON:013:1,2016-09-08T15:18:00Z,27.4847,-97.3181,0.921,1111122 
TCOON,ioos:station:TCOON:013:1,2016-09-08T16:18:00Z,27.4847,-97.3181,0.92,1111122 
TCOON,ioos:station:TCOON:013:1,2016-09-08T17:18:00Z,27.4847,-97.3181,0.919,1111122 
TCOON,ioos:station:TCOON:013:1,2016-09-08T18:18:00Z,27.4847,-97.3181,0.916,1111122 
TCOON,ioos:station:TCOON:013:1,2016-09-08T19:12:00Z,27.4847,-97.3181,0.908,1111122 
TCOON,ioos:station:TCOON:013:1,2016-09-08T20:18:00Z,27.4847,-97.3181,0.9,1111122 
TCOON,ioos:station:TCOON:013:1,2016-09-08T21:18:00Z,27.4847,-97.3181,0.89,1111122 
TCOON,ioos:station:TCOON:013:1,2016-09-08T22:18:00Z,27.4847,-97.3181,0.883,1111122 
TCOON,ioos:station:TCOON:013:1,2016-09-08T23:18:00Z,27.4847,-97.3181,0.875,1111122 
TCOON,ioos:station:TCOON:013:1,2016-09-09T00:18:00Z,27.4847,-97.3181,0.868,1111122 
TCOON,ioos:station:TCOON:013:1,2016-09-09T01:12:00Z,27.4847,-97.3181,0.864,1111122 
TCOON,ioos:station:TCOON:013:1,2016-09-09T02:12:00Z,27.4847,-97.3181,0.862,1111122 
TCOON,ioos:station:TCOON:013:1,2016-09-09T03:18:00Z,27.4847,-97.3181,0.86,1111122 
TCOON,ioos:station:TCOON:013:1,2016-09-09T04:18:00Z,27.4847,-97.3181,0.859,1111122 
TCOON,ioos:station:TCOON:013:1,2016-09-09T05:18:00Z,27.4847,-97.3181,0.857,1111122 
TCOON,ioos:station:TCOON:013:1,2016-09-09T06:18:00Z,27.4847,-97.3181,0.858,1111122 
TCOON,ioos:station:TCOON:013:1,2016-09-09T07:18:00Z,27.4847,-97.3181,0.861,1111122 
TCOON,ioos:station:TCOON:013:1,2016-09-09T08:18:00Z,27.4847,-97.3181,0.864,1111122 
TCOON,ioos:station:TCOON:013:1,2016-09-09T09:18:00Z,27.4847,-97.3181,0.872,1111122 
TCOON,ioos:station:TCOON:013:1,2016-09-09T10:18:00Z,27.4847,-97.3181,0.88,1111122 
TCOON,ioos:station:TCOON:013:1,2016-09-09T11:18:00Z,27.4847,-97.3181,0.893,1111122 
TCOON,ioos:station:TCOON:013:1,2016-09-09T12:18:00Z,27.4847,-97.3181,0.904,1111122 
TCOON,ioos:station:TCOON:013:1,2016-09-09T13:18:00Z,27.4847,-97.3181,0.914,1111122 
TCOON,ioos:station:TCOON:013:1,2016-09-09T14:18:00Z,27.4847,-97.3181,0.927,1111122 
TCOON,ioos:station:TCOON:013:1,2016-09-09T15:18:00Z,27.4847,-97.3181,0.931,1111122 
TCOON,ioos:station:TCOON:013:1,2016-09-09T16:18:00Z,27.4847,-97.3181,0.934,1111122 
TCOON,ioos:station:TCOON:013:1,2016-09-09T17:18:00Z,27.4847,-97.3181,0.936,1111122 
TCOON,ioos:station:TCOON:013:1,2016-09-09T18:18:00Z,27.4847,-97.3181,0.936,1111122 
TCOON,ioos:station:TCOON:013:1,2016-09-09T19:12:00Z,27.4847,-97.3181,0.932,1111122 
TCOON,ioos:station:TCOON:013:1,2016-09-09T20:12:00Z,27.4847,-97.3181,0.921,1111122 
TCOON,ioos:station:TCOON:013:1,2016-09-09T21:18:00Z,27.4847,-97.3181,0.91,1111122 
TCOON,ioos:station:TCOON:013:1,2016-09-09T22:18:00Z,27.4847,-97.3181,0.898,1111122 
TCOON,ioos:station:TCOON:013:1,2016-09-09T23:18:00Z,27.4847,-97.3181,0.885,1111122 
TCOON,ioos:station:TCOON:013:1,2016-09-10T00:18:00Z,27.4847,-97.3181,0.878,1111122 
TCOON,ioos:station:TCOON:013:1,2016-09-10T01:12:00Z,27.4847,-97.3181,0.868,1111122 
TCOON,ioos:station:TCOON:013:1,2016-09-10T03:42:00Z,27.4847,-97.3181,0.858,1111122 
TCOON,ioos:station:TCOON:013:1,2016-09-10T05:00:00Z,27.4847,-97.3181,0.857,1111122 
TCOON,ioos:station:TCOON:013:1,2016-09-10T05:18:00Z,27.4847,-97.3181,0.859,1111122 
TCOON,ioos:station:TCOON:013:1,2016-09-10T06:18:00Z,27.4847,-97.3181,0.858,1111122 
TCOON,ioos:station:TCOON:013:1,2016-09-10T07:12:00Z,27.4847,-97.3181,0.861,1111122 
TCOON,ioos:station:TCOON:013:1,2016-09-10T08:18:00Z,27.4847,-97.3181,0.865,1111122 
TCOON,ioos:station:TCOON:013:1,2016-09-10T09:18:00Z,27.4847,-97.3181,0.868,1111122 
TCOON,ioos:station:TCOON:013:1,2016-09-10T10:12:00Z,27.4847,-97.3181,0.871,1111122 
TCOON,ioos:station:TCOON:013:1,2016-09-10T11:12:00Z,27.4847,-97.3181,0.882,1111122 
TCOON,ioos:station:TCOON:013:1,2016-09-10T12:18:00Z,27.4847,-97.3181,0.898,1111122 
TCOON,ioos:station:TCOON:013:1,2016-09-10T13:18:00Z,27.4847,-97.3181,0.907,1111122 
TCOON,ioos:station:TCOON:013:1,2016-09-10T14:12:00Z,27.4847,-97.3181,0.914,1111122 
TCOON,ioos:station:TCOON:013:1,2016-09-10T15:12:00Z,27.4847,-97.3181,0.917,1111122 
TCOON,ioos:station:TCOON:013:1,2016-09-10T16:18:00Z,27.4847,-97.3181,0.918,1111122 
TCOON,ioos:station:TCOON:013:1,2016-09-10T17:18:00Z,27.4847,-97.3181,0.922,1111122 
TCOON,ioos:station:TCOON:013:1,2016-09-10T18:18:00Z,27.4847,-97.3181,0.922,1111122 
TCOON,ioos:station:TCOON:013:1,2016-09-10T19:12:00Z,27.4847,-97.3181,0.918,1111122 
TCOON,ioos:station:TCOON:013:1,2016-09-10T20:12:00Z,27.4847,-97.3181,0.911,1111122 
TCOON,ioos:station:TCOON:013:1,2016-09-10T21:18:00Z,27.4847,-97.3181,0.895,1111122 
TCOON,ioos:station:TCOON:013:1,2016-09-10T22:12:00Z,27.4847,-97.3181,0.885,1111122 
TCOON,ioos:station:TCOON:013:1,2016-09-10T23:18:00Z,27.4847,-97.3181,0.874,1111122 
TCOON,ioos:station:TCOON:013:1,2016-09-11T00:18:00Z,27.4847,-97.3181,0.867,1111122 
TCOON,ioos:station:TCOON:013:1,2016-09-11T01:18:00Z,27.4847,-97.3181,0.858,1111122 
TCOON,ioos:station:TCOON:013:1,2016-09-11T02:18:00Z,27.4847,-97.3181,0.853,1111122 
TCOON,ioos:station:TCOON:013:1,2016-09-11T03:12:00Z,27.4847,-97.3181,0.857,1111122 
TCOON,ioos:station:TCOON:013:1,2016-09-11T04:18:00Z,27.4847,-97.3181,0.848,1111122 
TCOON,ioos:station:TCOON:013:1,2016-09-11T05:12:00Z,27.4847,-97.3181,0.846,1111122 
TCOON,ioos:station:TCOON:013:1,2016-09-11T06:18:00Z,27.4847,-97.3181,0.843,1111122 
TCOON,ioos:station:TCOON:013:1,2016-09-11T07:18:00Z,27.4847,-97.3181,0.845,1111122 
TCOON,ioos:station:TCOON:013:1,2016-09-11T08:18:00Z,27.4847,-97.3181,0.85,1111122 
TCOON,ioos:station:TCOON:013:1,2016-09-11T09:18:00Z,27.4847,-97.3181,0.856,1111122 
TCOON,ioos:station:TCOON:013:1,2016-09-11T10:12:00Z,27.4847,-97.3181,0.866,1111122 
TCOON,ioos:station:TCOON:013:1,2016-09-11T11:18:00Z,27.4847,-97.3181,0.878,1111122 
TCOON,ioos:station:TCOON:013:1,2016-09-11T12:18:00Z,27.4847,-97.3181,0.875,1111122 
TCOON,ioos:station:TCOON:013:1,2016-09-11T13:18:00Z,27.4847,-97.3181,0.883,1111122 
TCOON,ioos:station:TCOON:013:1,2016-09-11T14:18:00Z,27.4847,-97.3181,0.888,1111122 
TCOON,ioos:station:TCOON:013:1,2016-09-11T15:18:00Z,27.4847,-97.3181,0.889,1111122 
TCOON,ioos:station:TCOON:013:1,2016-09-11T16:18:00Z,27.4847,-97.3181,0.892,1111122 
TCOON,ioos:station:TCOON:013:1,2016-09-11T17:18:00Z,27.4847,-97.3181,0.894,1111122 
TCOON,ioos:station:TCOON:013:1,2016-09-11T18:18:00Z,27.4847,-97.3181,0.897,1111122 
TCOON,ioos:station:TCOON:013:1,2016-09-11T19:18:00Z,27.4847,-97.3181,0.903,1111122 
TCOON,ioos:station:TCOON:013:1,2016-09-11T20:12:00Z,27.4847,-97.3181,0.903,1111122 
TCOON,ioos:station:TCOON:013:1,2016-09-11T21:18:00Z,27.4847,-97.3181,0.884,1111122 
TCOON,ioos:station:TCOON:013:1,2016-09-11T22:18:00Z,27.4847,-97.3181,0.876,1111122 
TCOON,ioos:station:TCOON:013:1,2016-09-11T23:18:00Z,27.4847,-97.3181,0.87,1111122 
TCOON,ioos:station:TCOON:013:1,2016-09-12T00:12:00Z,27.4847,-97.3181,0.863,1111122 
TCOON,ioos:station:TCOON:013:1,2016-09-12T01:18:00Z,27.4847,-97.3181,0.851,1111122 
TCOON,ioos:station:TCOON:013:1,2016-09-12T02:18:00Z,27.4847,-97.3181,0.847,1111122 
TCOON,ioos:station:TCOON:013:1,2016-09-12T03:18:00Z,27.4847,-97.3181,0.842,1111122 
TCOON,ioos:station:TCOON:013:1,2016-09-12T04:12:00Z,27.4847,-97.3181,0.84,1111122 
TCOON,ioos:station:TCOON:013:1,2016-09-12T05:18:00Z,27.4847,-97.3181,0.837,1111122 
TCOON,ioos:station:TCOON:013:1,2016-09-12T06:18:00Z,27.4847,-97.3181,0.836,1111122 
TCOON,ioos:station:TCOON:013:1,2016-09-12T07:18:00Z,27.4847,-97.3181,0.835,1111122 
TCOON,ioos:station:TCOON:013:1,2016-09-12T08:18:00Z,27.4847,-97.3181,0.837,1111122 
TCOON,ioos:station:TCOON:013:1,2016-09-12T09:18:00Z,27.4847,-97.3181,0.839,1111122 
TCOON,ioos:station:TCOON:013:1,2016-09-12T10:12:00Z,27.4847,-97.3181,0.847,1111122 
TCOON,ioos:station:TCOON:013:1,2016-09-12T11:12:00Z,27.4847,-97.3181,0.856,1111122 
TCOON,ioos:station:TCOON:013:1,2016-09-12T12:18:00Z,27.4847,-97.3181,0.864,1111122 
TCOON,ioos:station:TCOON:013:1,2016-09-12T13:18:00Z,27.4847,-97.3181,0.874,1111122 
TCOON,ioos:station:TCOON:013:1,2016-09-12T14:18:00Z,27.4847,-97.3181,0.88,1111122 
TCOON,ioos:station:TCOON:013:1,2016-09-12T15:24:00Z,27.4847,-97.3181,0.887,1111122 
TCOON,ioos:station:TCOON:013:1,2016-09-12T16:18:00Z,27.4847,-97.3181,0.89,1111122 
TCOON,ioos:station:TCOON:013:1,2016-09-12T17:18:00Z,27.4847,-97.3181,0.897,1111122 
TCOON,ioos:station:TCOON:013:1,2016-09-12T18:18:00Z,27.4847,-97.3181,0.903,1111122 
TCOON,ioos:station:TCOON:013:1,2016-09-12T19:18:00Z,27.4847,-97.3181,0.903,1111122 
TCOON,ioos:station:TCOON:013:1,2016-09-12T20:12:00Z,27.4847,-97.3181,0.901,1111122 
TCOON,ioos:station:TCOON:013:1,2016-09-12T21:18:00Z,27.4847,-97.3181,0.893,1111122 
TCOON,ioos:station:TCOON:013:1,2016-09-12T22:18:00Z,27.4847,-97.3181,0.889,1111122 
TCOON,ioos:station:TCOON:013:1,2016-09-12T23:12:00Z,27.4847,-97.3181,0.882,1111122 
TCOON,ioos:station:TCOON:013:1,2016-09-13T00:18:00Z,27.4847,-97.3181,0.87,1111122 
TCOON,ioos:station:TCOON:013:1,2016-09-13T01:18:00Z,27.4847,-97.3181,0.863,1111122 
TCOON,ioos:station:TCOON:013:1,2016-09-13T02:18:00Z,27.4847,-97.3181,0.853,1111122 
TCOON,ioos:station:TCOON:013:1,2016-09-13T03:18:00Z,27.4847,-97.3181,0.845,1111122 
TCOON,ioos:station:TCOON:013:1,2016-09-13T04:18:00Z,27.4847,-97.3181,0.837,1111122 
TCOON,ioos:station:TCOON:013:1,2016-09-13T05:18:00Z,27.4847,-97.3181,0.835,1111122 
TCOON,ioos:station:TCOON:013:1,2016-09-13T06:18:00Z,27.4847,-97.3181,0.832,1111122 
TCOON,ioos:station:TCOON:013:1,2016-09-13T07:18:00Z,27.4847,-97.3181,0.832,1111122 
TCOON,ioos:station:TCOON:013:1,2016-09-13T08:18:00Z,27.4847,-97.3181,0.848,1111122 
TCOON,ioos:station:TCOON:013:1,2016-09-13T09:12:00Z,27.4847,-97.3181,0.839,1111122 
TCOON,ioos:station:TCOON:013:1,2016-09-13T10:18:00Z,27.4847,-97.3181,0.851,1111122 
TCOON,ioos:station:TCOON:013:1,2016-09-13T11:18:00Z,27.4847,-97.3181,0.866,1111122 
TCOON,ioos:station:TCOON:013:1,2016-09-13T12:18:00Z,27.4847,-97.3181,0.877,1111122 
TCOON,ioos:station:TCOON:013:1,2016-09-13T13:18:00Z,27.4847,-97.3181,0.891,1111122 
TCOON,ioos:station:TCOON:013:1,2016-09-13T14:18:00Z,27.4847,-97.3181,0.902,1111122 
TCOON,ioos:station:TCOON:013:1,2016-09-13T15:18:00Z,27.4847,-97.3181,0.912,1111122 
TCOON,ioos:station:TCOON:013:1,2016-09-13T16:18:00Z,27.4847,-97.3181,0.919,1111122 
TCOON,ioos:station:TCOON:013:1,2016-09-13T17:18:00Z,27.4847,-97.3181,0.925,1111122 
TCOON,ioos:station:TCOON:013:1,2016-09-13T18:18:00Z,27.4847,-97.3181,0.928,1111122 